Pottsboro, TX

11:10 PM CST on December 02, 2016 (GMT -0600)
Sherman - Denison

Weather History for KGYI - May, 2013

Change the Weather History Date:

Sunday, May 26, 2013

  Actual Average (KDFW) Record (KDFW)
Temperature  
Mean Temperature 76 °F 77 °F  
Max Temperature 84 °F 86 °F 99 °F (1980)
Min Temperature 68 °F 67 °F 50 °F (1901)
Degree Days  
Heating Degree Days 0 0  
Month to date heating degree days 6  
Since 1 July heating degree days 2282  
Cooling Degree Days 11 12  
Month to date cooling degree days 222  
Year to date cooling degree days 360  
Growing Degree Days 26 (Base 50)    
Moisture  
Dew Point 69 °F    
Average Humidity 79    
Maximum Humidity 93    
Minimum Humidity 59    
Precipitation  
Precipitation 0.03 in 0.15 in 2.96 in (1900)
Month to date precipitation 4.11  
Year to date precipitation 15.46  
Sea Level Pressure  
Sea Level Pressure 30.04 in    
Wind  
Wind Speed 12 mph (SSE)    
Max Wind Speed 20 mph    
Max Gust Speed 25 mph    
Visibility 10 miles    
Events      
T = Trace of Precipitation, MM = Missing Value Source: NWS Daily Summary

Daily Weather History Graph

Daily Weather History Graph

Search for Another Location

Airport or City:

Trip Planner

Search our weather history database for the weather conditions in past years. The results will help you decide how hot, cold, wet, or windy it might be!

Date:

Astronomy

May. 26, 2013 Rise Set
Actual Time 6:19 AM CDT 8:28 PM CDT
Civil Twilight 5:51 AM CDT 8:56 PM CDT
Nautical Twilight 5:16 AM CDT 9:31 PM CDT
Astronomical Twilight 4:39 AM CDT 10:08 PM CDT
Moon 10:18 PM CDT (5/26) 7:49 AM CDT (5/26)
Length of Visible Light 15h 05m
Length of Day
14h 09m
Waning Gibbous, 96% of the Moon is Illuminated
May 26
Waning Gibbous
May 31
Last Quarter
Jun 8
New
Jun 16
First Quarter
Jun 23
Full

Hourly Weather History & Observations

Time (CDT) Temp. Heat Index Dew Point Humidity Pressure Visibility Wind Dir Wind Speed Gust Speed Precip Events Conditions
12:15 AM 69.3 °F - 66.2 °F 90% 30.09 in 10.0 mi SE 9.2 mph - N/A   Mostly Cloudy
12:35 AM 68.9 °F - 65.8 °F 90% 30.09 in 10.0 mi SSE 10.4 mph - N/A   Scattered Clouds
12:55 AM 68.9 °F - 66.2 °F 91% 30.09 in 10.0 mi SSE 10.4 mph - N/A   Scattered Clouds
1:15 AM 69.3 °F - 66.2 °F 90% 30.09 in 10.0 mi SSE 8.1 mph - N/A   Overcast
1:35 AM 69.1 °F - 66.2 °F 91% 30.08 in 10.0 mi SSE 6.9 mph - N/A   Overcast
1:55 AM 69.4 °F - 66.4 °F 90% 30.08 in 10.0 mi SSE 9.2 mph - N/A   Overcast
2:15 AM 69.8 °F - 66.4 °F 89% 30.07 in 10.0 mi SSE 9.2 mph - N/A   Overcast
2:35 AM 69.8 °F - 66.4 °F 89% 30.06 in 10.0 mi SSE 12.7 mph - N/A   Overcast
2:55 AM 69.6 °F - 66.2 °F 89% 30.06 in 10.0 mi SE 10.4 mph - N/A   Mostly Cloudy
3:15 AM 69.4 °F - 66.2 °F 89% 30.07 in 10.0 mi SE 8.1 mph - N/A   Scattered Clouds
3:35 AM 69.3 °F - 66.2 °F 90% 30.06 in 10.0 mi SSE 6.9 mph - N/A   Clear
3:55 AM 69.3 °F - 66.6 °F 91% 30.06 in 10.0 mi SSE 8.1 mph - N/A   Clear
4:15 AM 70.0 °F - 67.1 °F 91% 30.06 in 10.0 mi SSE 10.4 mph - N/A   Scattered Clouds
4:35 AM 70.2 °F - 67.3 °F 91% 30.05 in 10.0 mi SSE 12.7 mph 17.3 mph N/A   Scattered Clouds
4:55 AM 70.3 °F - 67.5 °F 91% 30.06 in 10.0 mi SSE 10.4 mph - N/A   Scattered Clouds
5:15 AM 70.3 °F - 67.5 °F 91% 30.06 in 10.0 mi SSE 9.2 mph - N/A   Overcast
5:35 AM 70.0 °F - 67.5 °F 92% 30.05 in 10.0 mi SSE 10.4 mph - N/A   Scattered Clouds
5:55 AM 70.0 °F - 67.6 °F 92% 30.05 in 7.0 mi SSE 11.5 mph - N/A   Clear
6:15 AM 70.3 °F - 68.0 °F 92% 30.06 in 10.0 mi SSE 11.5 mph - N/A   Mostly Cloudy
6:35 AM 70.2 °F - 68.0 °F 93% 30.06 in 7.0 mi SSE 12.7 mph - N/A   Scattered Clouds
6:55 AM 70.7 °F - 68.0 °F 91% 30.06 in 10.0 mi SSE 11.5 mph - N/A   Scattered Clouds
7:15 AM 70.9 °F - 68.4 °F 92% 30.07 in 7.0 mi SSE 11.5 mph 16.1 mph N/A   Scattered Clouds
7:35 AM 71.2 °F - 68.7 °F 92% 30.07 in 7.0 mi SSE 13.8 mph - N/A   Mostly Cloudy
7:55 AM 72.0 °F - 68.9 °F 90% 30.08 in 7.0 mi South 12.7 mph 18.4 mph N/A   Overcast
8:15 AM 72.5 °F - 69.1 °F 89% 30.08 in 7.0 mi South 12.7 mph - N/A   Mostly Cloudy
8:35 AM 72.7 °F - 69.1 °F 88% 30.09 in 7.0 mi South 16.1 mph - N/A   Overcast
8:55 AM 73.0 °F - 68.9 °F 87% 30.09 in 7.0 mi SSE 15.0 mph 19.6 mph N/A   Mostly Cloudy
9:15 AM 73.4 °F - 70.0 °F 89% 30.09 in 5.0 mi SSE 11.5 mph - N/A   Mostly Cloudy
9:35 AM 74.5 °F - 69.4 °F 84% 30.09 in 10.0 mi SSE 18.4 mph 23.0 mph N/A   Mostly Cloudy
9:55 AM 76.5 °F - 69.6 °F 79% 30.09 in 10.0 mi SSE 17.3 mph 23.0 mph N/A   Mostly Cloudy
10:15 AM 76.3 °F - 69.3 °F 79% 30.09 in 10.0 mi South 16.1 mph 23.0 mph N/A   Scattered Clouds
10:35 AM 76.5 °F - 69.4 °F 79% 30.09 in 10.0 mi SSE 16.1 mph 21.9 mph N/A   Mostly Cloudy
10:55 AM 75.7 °F - 68.7 °F 79% 30.09 in 10.0 mi South 16.1 mph 23.0 mph N/A   Overcast
11:15 AM 77.5 °F - 68.7 °F 74% 30.08 in 10.0 mi SSE 17.3 mph 24.2 mph N/A   Mostly Cloudy
11:35 AM 77.4 °F - 69.4 °F 76% 30.09 in 10.0 mi South 15.0 mph - N/A   Overcast
11:55 AM 78.1 °F - 68.9 °F 73% 30.08 in 10.0 mi South 15.0 mph 23.0 mph N/A   Overcast
12:15 PM 80.4 °F 83.2 °F 68.7 °F 67% 30.08 in 10.0 mi SSE 17.3 mph 25.3 mph N/A   Mostly Cloudy
12:35 PM 79.9 °F - 68.9 °F 69% 30.07 in 10.0 mi SSE 15.0 mph - N/A   Mostly Cloudy
12:55 PM 80.8 °F 83.9 °F 69.4 °F 68% 30.07 in 10.0 mi SSE 16.1 mph - N/A   Scattered Clouds
1:15 PM 79.9 °F - 68.9 °F 69% 30.07 in 10.0 mi South 15.0 mph 21.9 mph N/A   Scattered Clouds
1:35 PM 82.4 °F 86.1 °F 69.6 °F 65% 30.07 in 10.0 mi South 16.1 mph 19.6 mph N/A   Scattered Clouds
1:55 PM 81.0 °F 84.1 °F 69.1 °F 67% 30.06 in 10.0 mi SSE 15.0 mph - N/A   Mostly Cloudy
2:15 PM 82.2 °F 85.5 °F 68.9 °F 64% 30.05 in 10.0 mi South 13.8 mph - N/A   Mostly Cloudy
2:35 PM 80.8 °F 83.8 °F 68.9 °F 67% 30.04 in 10.0 mi SSE 15.0 mph - N/A   Mostly Cloudy
2:55 PM 81.5 °F 84.8 °F 69.3 °F 66% 30.02 in 10.0 mi SE 15.0 mph 18.4 mph N/A   Mostly Cloudy
3:15 PM 83.8 °F 87.5 °F 69.1 °F 61% 30.02 in 10.0 mi SSE 18.4 mph 23.0 mph N/A   Scattered Clouds
3:35 PM 84.2 °F 87.6 °F 68.4 °F 59% 30.02 in 10.0 mi South 19.6 mph 24.2 mph N/A   Scattered Clouds
3:55 PM 83.5 °F 86.7 °F 68.4 °F 60% 30.00 in 10.0 mi South 16.1 mph 21.9 mph N/A   Scattered Clouds
4:15 PM 84.4 °F 88.5 °F 69.4 °F 61% 29.99 in 10.0 mi South 15.0 mph - N/A   Scattered Clouds
4:35 PM 83.1 °F 86.6 °F 69.1 °F 62% 29.99 in 10.0 mi SSE 17.3 mph 24.2 mph N/A   Scattered Clouds
4:55 PM 82.8 °F 86.2 °F 69.1 °F 63% 29.99 in 10.0 mi SSE 12.7 mph 19.6 mph N/A   Scattered Clouds
5:15 PM 84.0 °F 87.3 °F 68.4 °F 59% 29.98 in 10.0 mi SSE 18.4 mph 23.0 mph N/A   Scattered Clouds
5:35 PM 82.6 °F 85.7 °F 68.5 °F 62% 29.98 in 10.0 mi SE 10.4 mph 20.7 mph N/A   Mostly Cloudy
5:55 PM 82.0 °F 85.7 °F 69.8 °F 66% 29.97 in 10.0 mi SE 13.8 mph - N/A   Scattered Clouds
6:15 PM 81.0 °F 84.4 °F 70.0 °F 69% 29.96 in 10.0 mi SE 13.8 mph - N/A   Clear
6:35 PM 80.8 °F 84.2 °F 70.2 °F 70% 29.95 in 10.0 mi SE 13.8 mph 18.4 mph N/A   Clear
6:55 PM 80.6 °F 84.1 °F 70.3 °F 71% 29.95 in 10.0 mi SE 11.5 mph - N/A   Clear
7:15 PM 80.1 °F 83.3 °F 70.3 °F 72% 29.95 in 10.0 mi SE 11.5 mph 18.4 mph N/A   Clear
7:35 PM 79.7 °F - 70.7 °F 74% 29.95 in 10.0 mi SE 10.4 mph - N/A   Clear
7:55 PM 79.0 °F - 70.9 °F 76% 29.95 in 10.0 mi ESE 10.4 mph - N/A   Clear
8:15 PM 78.3 °F - 70.3 °F 77% 29.95 in 10.0 mi ESE 12.7 mph - N/A   Clear
8:35 PM 77.4 °F - 70.0 °F 78% 29.96 in 10.0 mi SE 11.5 mph 18.4 mph N/A   Clear
8:55 PM 76.8 °F - 70.0 °F 79% 29.96 in 10.0 mi SE 11.5 mph - N/A   Scattered Clouds
9:15 PM 76.1 °F - 70.0 °F 81% 29.97 in 10.0 mi SE 12.7 mph - N/A   Clear
9:35 PM 76.1 °F - 70.0 °F 81% 29.97 in 10.0 mi SE 11.5 mph - N/A   Clear
9:55 PM 75.6 °F - 69.8 °F 82% 29.99 in 10.0 mi SE 10.4 mph - N/A   Scattered Clouds
10:15 PM 75.7 °F - 69.8 °F 82% 30.00 in 10.0 mi SE 10.4 mph - N/A   Mostly Cloudy
10:35 PM 75.4 °F - 69.8 °F 83% 30.00 in 10.0 mi SE 8.1 mph - N/A   Mostly Cloudy
10:55 PM 75.2 °F - 69.8 °F 83% 30.00 in 10.0 mi SE 9.2 mph - N/A   Mostly Cloudy
11:15 PM 75.4 °F - 69.8 °F 83% 30.00 in 10.0 mi SE 11.5 mph - N/A   Mostly Cloudy
11:35 PM 75.4 °F - 69.8 °F 83% 30.00 in 10.0 mi SE 11.5 mph - N/A   Mostly Cloudy
11:55 PM 75.0 °F - 69.8 °F 84% 30.00 in 10.0 mi SE 10.4 mph - N/A   Scattered Clouds